N700LM AGGH-NVSS

Flight info

Callsign N700LM
Flight time 1h 33m
Altitude 45000
Route AKNA1B TASAX R450 AKNAK DCT SS934
Aircraft C700/M-SBDGHM1RWXY/LB2

Departure

Time 2026-04-12 20:55
Airport Honiara International Airport (AGGH)

Arrival

Time 2026-04-12 22:28
Airport Santo Pekoa International Airport (NVSS)
Time Latitude Longitude Altitude Speed Heading
2026-04-12 20:41 -9.42878 160.04684 22 ft 0 kts 200°
2026-04-12 20:52 -9.42897 160.04683 22 ft 9 kts 187°
2026-04-12 20:52 -9.43015 160.04708 20 ft 27 kts 158°
2026-04-12 20:52 -9.43077 160.04798 18 ft 17 kts 82°
2026-04-12 20:53 -9.43038 160.04912 21 ft 18 kts 69°
2026-04-12 20:53 -9.42995 160.05034 23 ft 19 kts 72°
2026-04-12 20:53 -9.42948 160.05167 23 ft 21 kts 68°
2026-04-12 20:53 -9.42886 160.05300 26 ft 21 kts 66°
2026-04-12 20:54 -9.42824 160.05444 27 ft 24 kts 68°
2026-04-12 20:54 -9.42786 160.05547 23 ft 10 kts 288°
2026-04-12 20:54 -9.42824 160.05453 26 ft 53 kts 246°
2026-04-12 20:54 -9.43103 160.04762 30 ft 155 kts 248°
2026-04-12 20:55 -9.43550 160.03649 889 ft 184 kts 250°
2026-04-12 20:55 -9.43686 160.02261 1842 ft 211 kts 273°
2026-04-12 20:55 -9.43116 160.00871 3025 ft 222 kts 319°
2026-04-12 20:55 -9.41764 160.00221 4432 ft 216 kts
2026-04-12 20:56 -9.40369 160.00627 5776 ft 211 kts 39°
2026-04-12 20:56 -9.39619 160.01859 7034 ft 211 kts 77°
2026-04-12 20:56 -9.39809 160.03305 8195 ft 218 kts 113°
2026-04-12 20:56 -9.40926 160.04383 9276 ft 235 kts 148°
2026-04-12 20:57 -9.42512 160.04936 10204 ft 246 kts 160°
2026-04-12 20:57 -9.44155 160.05448 11108 ft 246 kts 149°
2026-04-12 20:57 -9.45561 160.06400 12006 ft 243 kts 133°
2026-04-12 20:57 -9.46726 160.07634 12862 ft 244 kts 127°
2026-04-12 20:58 -9.47895 160.08903 13700 ft 248 kts 127°
2026-04-12 20:58 -9.49068 160.10203 14429 ft 252 kts 127°
2026-04-12 20:58 -9.50243 160.11529 15157 ft 254 kts 127°
2026-04-12 20:58 -9.51417 160.12852 15852 ft 257 kts 127°
2026-04-12 20:59 -9.52625 160.14206 16533 ft 260 kts 128°
2026-04-12 20:59 -9.53846 160.15574 17209 ft 263 kts 128°
2026-04-12 20:59 -9.55080 160.16958 17876 ft 267 kts 128°
2026-04-12 20:59 -9.56331 160.18362 18485 ft 269 kts 128°
2026-04-12 21:00 -9.57589 160.19774 19018 ft 272 kts 128°
2026-04-12 21:00 -9.58861 160.21201 19561 ft 273 kts 128°
2026-04-12 21:00 -9.60139 160.22635 20092 ft 275 kts 128°
2026-04-12 21:00 -9.61428 160.24082 20596 ft 277 kts 128°
2026-04-12 21:01 -9.62727 160.25540 21089 ft 280 kts 129°
2026-04-12 21:01 -9.64016 160.26988 21547 ft 282 kts 129°
2026-04-12 21:01 -9.65332 160.28466 22029 ft 283 kts 129°
2026-04-12 21:01 -9.66658 160.29955 22485 ft 285 kts 129°
2026-04-12 21:02 -9.67990 160.31452 22932 ft 287 kts 129°
2026-04-12 21:02 -9.69333 160.32961 23362 ft 289 kts 129°
2026-04-12 21:02 -9.70688 160.34485 23632 ft 293 kts 129°
2026-04-12 21:02 -9.72050 160.36013 24006 ft 292 kts 129°
2026-04-12 21:03 -9.73414 160.37543 24338 ft 293 kts 129°
2026-04-12 21:03 -9.74785 160.39087 24633 ft 296 kts 129°
2026-04-12 21:03 -9.76147 160.40621 24917 ft 297 kts 129°
2026-04-12 21:03 -9.77533 160.42177 25235 ft 298 kts 129°
2026-04-12 21:04 -9.78923 160.43737 25536 ft 298 kts 129°
2026-04-12 21:04 -9.80311 160.45301 25804 ft 299 kts 129°
2026-04-12 21:04 -9.81708 160.46873 26078 ft 301 kts 129°
2026-04-12 21:04 -9.83111 160.48450 26351 ft 302 kts 129°
2026-04-12 21:05 -9.84523 160.50039 26588 ft 304 kts 129°
2026-04-12 21:05 -9.85940 160.51634 26884 ft 304 kts 129°
2026-04-12 21:05 -9.87357 160.53229 27127 ft 306 kts 129°
2026-04-12 21:05 -9.88770 160.54817 27391 ft 306 kts 129°
2026-04-12 21:06 -9.90198 160.56425 27617 ft 308 kts 129°
2026-04-12 21:06 -9.91629 160.58038 27854 ft 308 kts 129°
2026-04-12 21:06 -9.93067 160.59656 28066 ft 309 kts 129°
2026-04-12 21:06 -9.94509 160.61281 28276 ft 310 kts 129°
2026-04-12 21:07 -9.95952 160.62908 28480 ft 311 kts 129°
2026-04-12 21:07 -9.97402 160.64540 28663 ft 312 kts 129°
2026-04-12 21:07 -9.98839 160.66159 28849 ft 313 kts 129°
2026-04-12 21:07 -10.00296 160.67801 29034 ft 314 kts 129°
2026-04-12 21:08 -10.01760 160.69450 29205 ft 315 kts 129°
2026-04-12 21:08 -10.03225 160.71102 29386 ft 315 kts 129°
2026-04-12 21:08 -10.04692 160.72758 29547 ft 316 kts 129°
2026-04-12 21:08 -10.06167 160.74419 29714 ft 317 kts 129°
2026-04-12 21:09 -10.07644 160.76083 29865 ft 318 kts 129°
2026-04-12 21:09 -10.09122 160.77751 30005 ft 318 kts 129°
2026-04-12 21:09 -10.10603 160.79424 30137 ft 319 kts 129°
2026-04-12 21:09 -10.12066 160.81078 30238 ft 320 kts 129°
2026-04-12 21:10 -10.13550 160.82760 30360 ft 320 kts 129°
2026-04-12 21:10 -10.15035 160.84445 30482 ft 321 kts 129°
2026-04-12 21:10 -10.16526 160.86134 30588 ft 321 kts 129°
2026-04-12 21:10 -10.18017 160.87823 30699 ft 322 kts 129°
2026-04-12 21:11 -10.19511 160.89516 30813 ft 322 kts 129°
2026-04-12 21:11 -10.22505 160.92911 31014 ft 323 kts 129°
2026-04-12 21:12 -10.25486 160.96293 31193 ft 324 kts 129°
2026-04-12 21:12 -10.28495 160.99708 31389 ft 325 kts 129°
2026-04-12 21:13 -10.31510 161.03129 31553 ft 325 kts 130°
2026-04-12 21:13 -10.34534 161.06562 31706 ft 326 kts 130°
2026-04-12 21:14 -10.37541 161.09978 31830 ft 327 kts 130°
2026-04-12 21:14 -10.40577 161.13424 31986 ft 327 kts 130°
2026-04-12 21:15 -10.43618 161.16882 32123 ft 328 kts 130°
2026-04-12 21:15 -10.46665 161.20345 32240 ft 329 kts 130°
2026-04-12 21:16 -10.49700 161.23795 32347 ft 330 kts 130°
2026-04-12 21:16 -10.52757 161.27272 32452 ft 330 kts 130°
2026-04-12 21:17 -10.55824 161.30762 32543 ft 331 kts 130°
2026-04-12 21:17 -10.58886 161.34261 32630 ft 332 kts 130°
2026-04-12 21:18 -10.61941 161.37748 32702 ft 333 kts 130°
2026-04-12 21:18 -10.65020 161.41268 32775 ft 333 kts 131°
2026-04-12 21:19 -10.68109 161.44797 32840 ft 335 kts 131°
2026-04-12 21:19 -10.69649 161.46557 32984 ft 331 kts 131°
2026-04-12 21:19 -10.71164 161.48291 33202 ft 325 kts 131°
2026-04-12 21:19 -10.72658 161.49999 33428 ft 320 kts 131°
2026-04-12 21:20 -10.74127 161.51679 33640 ft 316 kts 131°
2026-04-12 21:20 -10.75555 161.53312 33852 ft 311 kts 131°
2026-04-12 21:20 -10.76982 161.54944 34050 ft 306 kts 131°
2026-04-12 21:20 -10.78387 161.56551 34244 ft 301 kts 131°
2026-04-12 21:21 -10.79776 161.58141 34467 ft 303 kts 131°
2026-04-12 21:21 -10.81204 161.59775 34587 ft 317 kts 131°
2026-04-12 21:21 -10.82710 161.61499 34606 ft 335 kts 131°
2026-04-12 21:21 -10.84299 161.63318 34631 ft 353 kts 131°
2026-04-12 21:22 -10.85971 161.65233 34671 ft 371 kts 131°
2026-04-12 21:22 -10.87726 161.67242 34702 ft 388 kts 131°
2026-04-12 21:22 -10.89534 161.69314 34736 ft 405 kts 131°
2026-04-12 21:22 -10.91441 161.71499 34771 ft 421 kts 131°
2026-04-12 21:23 -10.93416 161.73763 34811 ft 434 kts 131°
2026-04-12 21:23 -10.95428 161.76069 35211 ft 435 kts 131°
2026-04-12 21:23 -10.97429 161.78363 35787 ft 432 kts 131°
2026-04-12 21:23 -10.99421 161.80646 36346 ft 430 kts 131°
2026-04-12 21:24 -11.01399 161.82916 36888 ft 427 kts 131°
2026-04-12 21:24 -11.03363 161.85169 37428 ft 425 kts 131°
2026-04-12 21:24 -11.05293 161.87384 37950 ft 422 kts 131°
2026-04-12 21:24 -11.07263 161.89644 38472 ft 420 kts 131°
2026-04-12 21:25 -11.09171 161.91835 38885 ft 419 kts 131°
2026-04-12 21:25 -11.11102 161.94052 39238 ft 418 kts 131°
2026-04-12 21:25 -11.13030 161.96267 39579 ft 418 kts 131°
2026-04-12 21:25 -11.14961 161.98484 39909 ft 418 kts 130°
2026-04-12 21:26 -11.16886 162.00697 40243 ft 417 kts 130°
2026-04-12 21:26 -11.20736 162.05121 40888 ft 417 kts 130°
2026-04-12 21:26 -11.22632 162.07302 41203 ft 417 kts 130°
2026-04-12 21:27 -11.24550 162.09507 41517 ft 416 kts 130°
2026-04-12 21:27 -11.26469 162.11715 41824 ft 416 kts 130°
2026-04-12 21:27 -11.28384 162.13918 42114 ft 415 kts 130°
2026-04-12 21:27 -11.30299 162.16121 42411 ft 415 kts 130°
2026-04-12 21:28 -11.32212 162.18323 42692 ft 415 kts 130°
2026-04-12 21:28 -11.34122 162.20521 42968 ft 414 kts 130°
2026-04-12 21:28 -11.36030 162.22720 43240 ft 414 kts 130°
2026-04-12 21:28 -11.37293 162.24174 43410 ft 414 kts 130°
2026-04-12 21:29 -11.39822 162.27087 43741 ft 414 kts 130°
2026-04-12 21:29 -11.41727 162.29281 43973 ft 414 kts 130°
2026-04-12 21:29 -11.43633 162.31479 44218 ft 414 kts 130°
2026-04-12 21:29 -11.45539 162.33677 44452 ft 414 kts 130°
2026-04-12 21:30 -11.47443 162.35872 44638 ft 414 kts 130°
2026-04-12 21:30 -11.49351 162.38071 44796 ft 414 kts 129°
2026-04-12 21:30 -11.52530 162.41739 44884 ft 419 kts 130°
2026-04-12 21:31 -11.57061 162.46969 44894 ft 428 kts 130°
2026-04-12 21:31 -11.61041 162.51564 44905 ft 436 kts 130°
2026-04-12 21:32 -11.64402 162.55448 44900 ft 443 kts 130°
2026-04-12 21:32 -11.68507 162.60191 44905 ft 449 kts 130°
2026-04-12 21:33 -11.73322 162.65760 44906 ft 451 kts 130°
2026-04-12 21:33 -11.77480 162.70567 44904 ft 452 kts 129°
2026-04-12 21:34 -11.80937 162.74571 44908 ft 452 kts 129°
2026-04-12 21:34 -11.85093 162.79385 44915 ft 453 kts 130°
2026-04-12 21:35 -11.89255 162.84205 44908 ft 453 kts 129°
2026-04-12 21:35 -11.93419 162.89034 44910 ft 453 kts 129°
2026-04-12 21:36 -11.97551 162.93832 44913 ft 453 kts 129°
2026-04-12 21:36 -12.01718 162.98663 44914 ft 453 kts 129°
2026-04-12 21:37 -12.05881 163.03499 44910 ft 453 kts 129°
2026-04-12 21:37 -12.10047 163.08336 44912 ft 454 kts 129°
2026-04-12 21:38 -12.14211 163.13174 44917 ft 454 kts 129°
2026-04-12 21:38 -12.18350 163.17987 44914 ft 453 kts 129°
2026-04-12 21:39 -12.22516 163.22828 44915 ft 453 kts 129°
2026-04-12 21:39 -12.26675 163.27673 44919 ft 453 kts 129°
2026-04-12 21:40 -12.30834 163.32514 44919 ft 453 kts 129°
2026-04-12 21:40 -12.34991 163.37360 44920 ft 453 kts 129°
2026-04-12 21:41 -12.39120 163.42171 44920 ft 453 kts 129°
2026-04-12 21:41 -12.43270 163.47014 44919 ft 453 kts 129°
2026-04-12 21:42 -12.47426 163.51861 44923 ft 453 kts 129°
2026-04-12 21:42 -12.51577 163.56709 44919 ft 453 kts 129°
2026-04-12 21:43 -12.55703 163.61528 44924 ft 453 kts 129°
2026-04-12 21:43 -12.59856 163.66384 44924 ft 453 kts 129°
2026-04-12 21:44 -12.64006 163.71237 44928 ft 453 kts 129°
2026-04-12 21:44 -12.68155 163.76090 44927 ft 453 kts 129°
2026-04-12 21:45 -12.72280 163.80920 44926 ft 453 kts 129°
2026-04-12 21:45 -12.76427 163.85777 44929 ft 453 kts 129°
2026-04-12 21:46 -12.80578 163.90641 44923 ft 453 kts 129°
2026-04-12 21:46 -12.84724 163.95504 44929 ft 453 kts 129°
2026-04-12 21:47 -12.88849 164.00343 44931 ft 454 kts 129°
2026-04-12 21:47 -12.93002 164.05217 44932 ft 454 kts 129°
2026-04-12 21:48 -12.97158 164.10100 44932 ft 455 kts 129°
2026-04-12 21:48 -13.01319 164.14987 44931 ft 455 kts 129°
2026-04-12 21:49 -13.05452 164.19848 44934 ft 456 kts 129°
2026-04-12 21:49 -13.09617 164.24750 44932 ft 456 kts 129°
2026-04-12 21:50 -13.13787 164.29656 44934 ft 456 kts 129°
2026-04-12 21:50 -13.17957 164.34570 44936 ft 456 kts 129°
2026-04-12 21:51 -13.22095 164.39451 44935 ft 456 kts 129°
2026-04-12 21:51 -13.26153 164.44451 44934 ft 456 kts 128°
2026-04-12 21:52 -13.30224 164.49437 44940 ft 456 kts 128°
2026-04-12 21:52 -13.34281 164.54439 44939 ft 456 kts 128°
2026-04-12 21:53 -13.38351 164.59442 44947 ft 456 kts 128°
2026-04-12 21:53 -13.42383 164.64415 44945 ft 456 kts 128°
2026-04-12 21:54 -13.46452 164.69426 44945 ft 456 kts 128°
2026-04-12 21:54 -13.50512 164.74434 44945 ft 456 kts 128°
2026-04-12 21:55 -13.54562 164.79433 44949 ft 455 kts 128°
2026-04-12 21:55 -13.58611 164.84430 44950 ft 454 kts 128°
2026-04-12 21:56 -13.62623 164.89389 44953 ft 454 kts 128°
2026-04-12 21:56 -13.66658 164.94375 44953 ft 453 kts 128°
2026-04-12 21:57 -13.70687 164.99360 44951 ft 453 kts 128°
2026-04-12 21:57 -13.74711 165.04337 44949 ft 452 kts 128°
2026-04-12 21:58 -13.78728 165.09314 44952 ft 452 kts 128°
2026-04-12 21:58 -13.82722 165.14263 44954 ft 452 kts 128°
2026-04-12 21:59 -13.86734 165.19236 44953 ft 452 kts 128°
2026-04-12 21:59 -13.90751 165.24220 44955 ft 453 kts 128°
2026-04-12 22:00 -13.94768 165.29206 44955 ft 453 kts 128°
2026-04-12 22:00 -13.98761 165.34165 44954 ft 453 kts 128°
2026-04-12 22:01 -14.02778 165.39158 44953 ft 453 kts 128°
2026-04-12 22:01 -14.06793 165.44150 44956 ft 452 kts 128°
2026-04-12 22:02 -14.10802 165.49139 44955 ft 452 kts 128°
2026-04-12 22:02 -14.14786 165.54098 44958 ft 452 kts 128°
2026-04-12 22:03 -14.18791 165.59087 44950 ft 452 kts 128°
2026-04-12 22:03 -14.22793 165.64075 44953 ft 451 kts 129°
2026-04-12 22:04 -14.26792 165.69064 44536 ft 447 kts 129°
2026-04-12 22:04 -14.28747 165.71502 43922 ft 434 kts 129°
2026-04-12 22:04 -14.30654 165.73881 43350 ft 429 kts 129°
2026-04-12 22:05 -14.32556 165.76259 42789 ft 431 kts 129°
2026-04-12 22:05 -14.34439 165.78611 42226 ft 431 kts 129°
2026-04-12 22:05 -14.36350 165.80998 41661 ft 433 kts 130°
2026-04-12 22:05 -14.38266 165.83392 41085 ft 434 kts 130°
2026-04-12 22:06 -14.40189 165.85796 40527 ft 435 kts 130°
2026-04-12 22:06 -14.41599 165.87560 40097 ft 436 kts 130°
2026-04-12 22:06 -14.43503 165.89941 39536 ft 438 kts 130°
2026-04-12 22:06 -14.45443 165.92368 38959 ft 438 kts 130°
2026-04-12 22:07 -14.47387 165.94801 38342 ft 439 kts 131°
2026-04-12 22:07 -14.49337 165.97242 37756 ft 442 kts 131°
2026-04-12 22:07 -14.51276 165.99670 37179 ft 445 kts 131°
2026-04-12 22:07 -14.53248 166.02140 36588 ft 447 kts 131°
2026-04-12 22:08 -14.55235 166.04630 36003 ft 450 kts 131°
2026-04-12 22:08 -14.57233 166.07134 35408 ft 453 kts 131°
2026-04-12 22:08 -14.59237 166.09646 34814 ft 455 kts 131°
2026-04-12 22:08 -14.61263 166.12188 34208 ft 457 kts 131°
2026-04-12 22:09 -14.63293 166.14735 33566 ft 460 kts 131°
2026-04-12 22:09 -14.65302 166.17256 32965 ft 462 kts 131°
2026-04-12 22:09 -14.67344 166.19820 32357 ft 463 kts 130°
2026-04-12 22:09 -14.69393 166.22393 31746 ft 465 kts 130°
2026-04-12 22:10 -14.71447 166.24974 31135 ft 466 kts 130°
2026-04-12 22:10 -14.73510 166.27566 30516 ft 467 kts 130°
2026-04-12 22:10 -14.75576 166.30163 29880 ft 469 kts 130°
2026-04-12 22:10 -14.77639 166.32757 29240 ft 465 kts 130°
2026-04-12 22:11 -14.79691 166.35339 28635 ft 462 kts 130°
2026-04-12 22:11 -14.81693 166.37859 28034 ft 458 kts 130°
2026-04-12 22:11 -14.83708 166.40396 27430 ft 455 kts 130°
2026-04-12 22:11 -14.85701 166.42907 26837 ft 451 kts 129°
2026-04-12 22:12 -14.87688 166.45407 26247 ft 448 kts 129°
2026-04-12 22:12 -14.89656 166.47885 25662 ft 445 kts 129°
2026-04-12 22:12 -14.91609 166.50347 25083 ft 441 kts 129°
2026-04-12 22:12 -14.93547 166.52790 24502 ft 438 kts 129°
2026-04-12 22:13 -14.95474 166.55220 23932 ft 435 kts 129°
2026-04-12 22:13 -14.97387 166.57632 23324 ft 432 kts 129°
2026-04-12 22:13 -14.99255 166.59988 22756 ft 428 kts 129°
2026-04-12 22:13 -15.01130 166.62356 22196 ft 424 kts 129°
2026-04-12 22:14 -15.02992 166.64709 21638 ft 420 kts 129°
2026-04-12 22:14 -15.04834 166.67034 21092 ft 417 kts 128°
2026-04-12 22:14 -15.06665 166.69348 20537 ft 414 kts 128°
2026-04-12 22:14 -15.08478 166.71644 20003 ft 410 kts 128°
2026-04-12 22:15 -15.10284 166.73923 19466 ft 407 kts 128°
2026-04-12 22:15 -15.12073 166.76186 18928 ft 404 kts 128°
2026-04-12 22:15 -15.13846 166.78431 18403 ft 401 kts 128°
2026-04-12 22:15 -15.15586 166.80628 17840 ft 398 kts 128°
2026-04-12 22:16 -15.17330 166.82835 17311 ft 395 kts 128°
2026-04-12 22:16 -15.19062 166.85029 16797 ft 392 kts 128°
2026-04-12 22:16 -15.20780 166.87201 16273 ft 389 kts 128°
2026-04-12 22:16 -15.22485 166.89369 15774 ft 386 kts 128°
2026-04-12 22:17 -15.24178 166.91517 15273 ft 384 kts 128°
2026-04-12 22:17 -15.25865 166.93650 14771 ft 381 kts 128°
2026-04-12 22:17 -15.27539 166.95770 14265 ft 379 kts 128°
2026-04-12 22:17 -15.29196 166.97866 13765 ft 369 kts 128°
2026-04-12 22:18 -15.30732 166.99814 13270 ft 340 kts 128°
2026-04-12 22:18 -15.32169 167.01637 12838 ft 316 kts 127°
2026-04-12 22:18 -15.33527 167.03367 12428 ft 306 kts 128°
2026-04-12 22:18 -15.34872 167.05074 12027 ft 306 kts 128°
2026-04-12 22:19 -15.36202 167.06786 11612 ft 304 kts 125°
2026-04-12 22:19 -15.37314 167.08640 11198 ft 302 kts 117°
2026-04-12 22:19 -15.38282 167.10561 10799 ft 300 kts 116°
2026-04-12 22:19 -15.39279 167.12422 10408 ft 299 kts 119°
2026-04-12 22:20 -15.40378 167.14250 10024 ft 298 kts 121°
2026-04-12 22:20 -15.41473 167.16069 9620 ft 297 kts 120°
2026-04-12 22:20 -15.42523 167.17902 9213 ft 295 kts 118°
2026-04-12 22:20 -15.43559 167.19723 8803 ft 292 kts 119°
2026-04-12 22:21 -15.44605 167.21523 8394 ft 291 kts 120°
2026-04-12 22:21 -15.45649 167.23312 8004 ft 289 kts 119°
2026-04-12 22:21 -15.46678 167.25093 7621 ft 287 kts 119°
2026-04-12 22:21 -15.47699 167.26861 7239 ft 285 kts 119°
2026-04-12 22:22 -15.48706 167.28598 6876 ft 284 kts 119°
2026-04-12 22:22 -15.49721 167.30354 6497 ft 283 kts 119°
2026-04-12 22:22 -15.50730 167.32101 6111 ft 282 kts 119°
2026-04-12 22:22 -15.51733 167.33837 5729 ft 279 kts 119°
2026-04-12 22:23 -15.52730 167.35558 5354 ft 278 kts 119°
2026-04-12 22:23 -15.53720 167.37271 4990 ft 276 kts 119°
2026-04-12 22:23 -15.54771 167.38935 4606 ft 276 kts 129°
2026-04-12 22:23 -15.56347 167.40037 4166 ft 277 kts 161°
2026-04-12 22:24 -15.58249 167.40121 3741 ft 278 kts 193°
2026-04-12 22:24 -15.59917 167.39163 3333 ft 276 kts 225°
2026-04-12 22:24 -15.60844 167.37492 2934 ft 272 kts 257°
2026-04-12 22:24 -15.60864 167.35569 2536 ft 267 kts 285°
2026-04-12 22:25 -15.60040 167.33932 2141 ft 249 kts 310°
2026-04-12 22:25 -15.58925 167.32620 1770 ft 237 kts 314°
2026-04-12 22:25 -15.57864 167.31370 1611 ft 222 kts 312°
2026-04-12 22:25 -15.56928 167.30181 1596 ft 206 kts 311°
2026-04-12 22:26 -15.56035 167.29038 1600 ft 204 kts 312°
2026-04-12 22:26 -15.55120 167.27889 1436 ft 213 kts 312°
2026-04-12 22:26 -15.54204 167.26744 1124 ft 193 kts 311°
2026-04-12 22:26 -15.53445 167.25781 1124 ft 160 kts 312°
2026-04-12 22:27 -15.52768 167.24935 939 ft 140 kts 313°
2026-04-12 22:27 -15.52171 167.24193 545 ft 130 kts 314°
2026-04-12 22:27 -15.51618 167.23518 381 ft 119 kts 314°
2026-04-12 22:27 -15.51115 167.22858 218 ft 117 kts 314°
2026-04-12 22:28 -15.50631 167.22237 147 ft 99 kts 310°
2026-04-12 22:28 -15.50456 167.22014 157 ft 13 kts 230°
2026-04-12 22:28 -15.50533 167.22096 152 ft 22 kts 130°
2026-04-12 22:28 -15.50622 167.22100 148 ft 16 kts 216°
2026-04-12 22:29 -15.50735 167.22023 148 ft 20 kts 219°
2026-04-12 22:29 -15.50788 167.22002 149 ft 9 kts 182°
2026-04-12 22:29 -15.50813 167.21979 149 ft 4 kts 302°
2026-04-12 22:29 -15.50810 167.21976 149 ft 0 kts 313°